Wetbulb
49.35 44.77 41.70 43.89 45.53 42.22 41.98 41.69 39.46 43.37 44.86 44.95 44.41 45.22 47.18 46.23 44.45 44.01 43.86 46.10 50.18 53.50 56.99 57.98 58.89 59.85 60.29 60.41 60.53 61.10 60.99 61.16 60.66 60.15 59.31 59.02 59.02 59.57 59.23 59.30 59.51 59.89 60.12 60.05
44.84 41.50 45.14 46.35 44.97 43.80 41.79 40.66 39.83 43.16 44.73 44.44 44.52 44.32 47.43 46.86 45.51 47.34 47.57 46.01 45.50 49.62 52.46 55.50 57.41 58.38 59.57 60.16 60.39 60.53 61.05 61.56 60.95 60.80 60.75 60.84 60.63 60.33 60.73 60.23 59.70 59.62 59.96 60.22
41.52 42.65 46.16 44.75 43.81 42.28 41.94 40.49 40.11 40.58 40.99 42.11 40.92 40.49 43.19 45.70 44.93 46.09 46.43 48.92 48.37 47.49 48.25 50.77 54.28 57.19 58.57 59.31 59.77 60.36 60.69 61.37 61.80 61.89 61.31 60.27 60.14 59.29 59.18 59.47 59.96 59.64 59.83 59.85
41.38 44.76 43.88 43.22 42.52 43.03 39.02 43.86 42.87 40.89 40.36 36.29 42.86 32.70 40.40 43.78 45.12 45.83 47.27 46.46 48.14 47.95 48.03 49.13 48.34 53.47 57.56 58.63 60.29 60.55 60.87 60.80 61.84 62.42 61.49 60.66 60.16 59.40 60.39 60.96 61.08 61.00 60.07 59.80
39.73 41.07 41.74 41.31 41.39 44.55 40.29 44.05 43.68 42.86 40.08 38.25 36.88 34.69 39.51 41.76 41.92 44.85 47.76 47.86 49.09 49.67 49.50 49.65 49.83 49.79 54.21 58.15 59.40 60.23 60.58 60.40 60.88 61.96 62.30 61.40 60.78 61.39 61.87 61.41 60.64 60.83 60.52 60.59
39.08 41.49 40.38 42.69 44.51 45.12 44.74 43.45 42.63 41.70 40.44 33.49 37.94 36.56 37.46 40.28 41.50 45.58 48.42 50.06 50.59 49.29 50.00 50.75 51.33 50.65 50.54 54.75 58.14 59.68 59.73 59.83 60.38 60.65 61.81 61.53 61.10 61.03 60.45 60.02 59.73 60.08 60.48 60.02
35.56 37.75 41.22 42.42 41.24 44.68 43.57 40.07 32.71 31.16 30.43 31.38 38.61 34.39 39.24 40.36 42.25 46.50 48.02 49.74 51.34 49.07 49.43 50.45 49.31 47.92 48.60 49.89 55.32 57.86 58.74 58.53 59.42 59.57 60.29 61.22 61.04 61.01 60.53 60.29 59.62 59.65 58.94 59.26
26.37 24.36 37.73 41.21 40.04 40.47 40.36 40.01 31.75 26.82 26.45 30.77 33.81 32.54 37.99 44.05 47.29 44.52 46.44 49.15 47.22 46.18 47.44 47.66 48.16 48.68 48.93 48.80 51.35 55.68 56.99 57.88 58.39 58.87 59.37 60.35 60.95 60.77 60.57 60.60 60.14 59.52 59.64 59.56
27.48 27.03 37.46 41.22 42.36 42.69 39.92 36.82 41.56 30.22 21.64 25.01 30.05 34.58 39.02 41.30 41.22 42.44 46.53 42.65 43.36 45.31 44.65 43.83 44.69 47.46 48.27 47.93 48.68 53.07 55.39 56.83 57.28 58.22 58.77 59.13 60.01 60.06 59.96 60.23 60.24 60.03 59.64 59.23
31.37 25.03 36.08 39.28 43.16 44.24 41.52 43.61 35.37 35.23 27.21 24.91 27.36 32.24 35.16 37.35 42.31 42.81 42.76 44.04 46.60 46.40 44.43 43.61 42.52 43.53 44.59 46.06 47.22 50.73 54.06 55.00 55.84 56.74 57.78 58.29 58.71 59.58 59.97 59.43 58.75 58.95 59.31 58.66
32.28 29.43 29.56 38.14 37.93 37.29 38.47 38.28 38.94 38.54 34.12 28.81 27.22 31.85 36.97 40.46 41.34 43.77 46.13 47.19 47.50 48.32 47.33 47.17 42.58 42.24 43.41 43.62 44.68 47.74 51.08 52.60 53.49 54.83 55.90 56.76 57.03 57.51 57.92 58.29 58.03 58.16 58.15 57.90
33.35 30.95 22.85 27.26 35.79 38.67 37.18 32.05 38.19 33.78 32.09 33.96 33.17 33.60 37.33 42.60 43.96 45.26 46.00 47.78 49.00 46.27 45.61 42.35 41.10 40.55 40.12 40.61 41.88 44.83 47.01 49.48 51.55 52.97 52.85 53.45 53.56 54.29 55.20 55.75 56.11 56.54 56.76 57.83
34.53 29.09 15.69 20.34 27.55 34.65 33.06 34.60 33.70 40.35 37.09 33.46 30.77 33.19 38.58 37.92 39.40 40.75 42.26 42.83 43.20 42.03 41.33 40.00 38.68 38.83 38.99 38.93 39.62 41.25 44.08 46.69 47.77 48.78 50.12 50.26 51.04 51.15 51.93 51.96 51.10 49.55 49.19 48.43
38.21 30.23 23.17 20.45 24.11 33.50 32.21 35.40 36.06 34.32 35.04 34.77 34.85 36.92 39.78 36.95 37.11 38.55 39.23 40.02 40.56 40.28 41.04 40.00 38.86 39.32 39.23 39.25 39.82 39.94 40.83 43.03 43.28 44.92 45.83 45.65 45.22 44.46 43.32 42.69 42.96 43.78 44.79 45.49
35.33 29.11 28.85 30.85 31.97 32.45 32.73 33.68 34.81 33.36 35.86 34.97 37.54 36.83 40.85 43.36 41.40 39.06 40.18 39.55 39.03 39.49 40.14 39.55 38.89 38.38 38.38 38.67 38.93 39.30 39.99 39.93 40.39 40.68 40.64 40.93 41.01 41.53 41.62 41.61 41.77 42.95 44.02 43.99
36.63 23.90 29.53 28.99 32.96 33.57 30.08 31.88 33.11 33.71 33.80 33.95 36.47 38.30 45.54 46.35 42.49 41.34 43.58 39.51 38.59 39.77 40.37 40.07 38.63 38.80 38.69 39.44 39.79 39.41 39.99 39.87 40.07 40.30 40.28 39.75 39.77 39.68 40.00 39.76 40.44 41.04 40.84 42.54
27.53 22.30 16.29 19.01 26.11 26.39 22.93 27.84 30.63 32.89 36.05 35.02 30.90 39.76 45.12 44.54 43.72 43.20 42.56 40.40 42.39 43.30 40.25 40.12 40.64 40.91 40.74 40.34 40.47 39.57 39.79 38.82 39.18 39.14 38.38 37.72 37.68 37.29 37.35 36.93 37.10 37.75 39.16 40.07
25.88 19.36 19.73 19.04 16.53 10.58 26.43 34.33 35.18 33.79 36.44 38.39 38.12 39.51 43.50 45.57 46.67 43.31 43.45 44.23 44.49 45.07 41.01 40.86 41.72 42.83 41.06 39.92 38.33 38.38 37.95 38.33 37.89 37.28 36.34 35.81 36.01 35.86 35.72 35.71 35.73 36.53 36.81 36.20
29.99 24.83 11.29 14.13 11.67 20.79 25.12 28.61 32.55 34.00 34.43 39.41 38.39 39.83 41.97 45.16 39.07 42.23 44.08 44.97 46.80 45.91 44.19 43.94 43.41 43.33 39.47 39.68 39.20 38.01 35.76 36.09 35.96 35.76 35.65 35.03 35.24 34.39 34.80 34.39 36.64 37.05 34.61 34.98
28.53 29.01 22.53 13.88 3.56 6.33 25.39 31.62 35.37 36.20 29.29 40.37 40.77 40.37 41.41 42.70 38.99 43.96 49.76 43.43 43.65 42.93 40.91 40.42 39.74 38.41 39.77 39.62 37.33 36.78 36.19 36.06 36.43 35.69 35.30 34.89 34.17 34.59 35.21 36.29 35.84 34.62 34.15 33.50
15.08 23.04 21.41 19.93 17.77 18.30 29.98 32.08 38.83 28.06 32.15 41.09 42.28 42.41 42.44 41.43 45.36 48.48 46.89 44.42 44.62 43.37 40.81 38.14 37.17 38.41 40.22 36.81 36.63 36.47 36.00 36.78 36.39 34.49 33.80 32.53 33.53 34.62 36.03 35.63 34.31 34.10 33.57 33.40
18.85 14.42 18.20 20.05 20.29 17.17 34.40 32.21 28.24 34.56 38.76 39.70 41.95 43.53 43.52 44.60 46.38 47.03 47.58 44.13 38.98 38.44 35.97 36.09 35.82 36.51 35.87 36.74 37.42 36.75 36.22 34.89 32.89 32.54 32.13 32.00 33.27 34.21 34.95 34.48 33.57 33.54 33.48 33.24
19.26 25.87 23.38 25.58 25.08 33.85 34.38 34.61 38.12 39.17 38.33 39.78 41.88 44.59 44.51 44.46 45.42 46.98 47.48 48.13 45.55 39.63 35.43 34.51 36.41 33.79 33.28 35.02 37.62 35.94 34.43 32.25 31.64 32.57 32.54 32.99 33.48 33.95 34.24 33.86 33.23 33.35 33.23 33.79
25.67 29.48 25.67 26.22 29.92 32.07 35.07 35.99 38.53 37.77 38.88 41.81 43.36 44.03 44.03 44.25 45.64 44.65 45.60 45.82 42.87 36.05 34.81 33.08 33.30 33.65 32.21 32.75 33.17 35.24 32.02 32.00 33.24 32.79 32.79 33.24 33.52 33.43 33.61 34.29 34.09 33.55 33.46 33.32
28.68 27.54 27.29 27.43 30.91 32.87 33.86 34.61 38.98 40.23 40.27 38.38 37.00 38.00 41.68 43.18 43.11 42.86 41.13 36.40 36.49 36.67 32.16 33.50 34.92 34.50 34.32 33.20 32.91 31.61 31.17 33.51 33.15 32.99 32.84 33.06 33.57 33.72 33.20 32.95 33.38 32.74 30.31 32.91
17.59 16.31 22.07 26.53 21.82 19.05 24.13 29.12 25.62 28.84 31.65 37.71 38.51 35.42 34.14 37.05 40.21 36.97 36.36 35.63 35.87 33.40 30.22 31.68 32.01 32.40 29.94 30.39 30.29 29.68 32.84 33.82 32.96 32.11 32.45 32.98 32.99 32.80 31.79 31.56 31.67 34.29 34.06 34.75
MSLP
1018.55 1018.77 1018.23 1017.26 1018.26 1018.68 1018.76 1019.14 1019.20 1019.04 1019.05 1019.38 1019.27 1018.59 1017.96 1018.12 1018.28 1018.00 1018.02 1017.98 1017.88 1017.72 1017.22 1017.69 1017.85 1018.38 1018.92 1019.28 1019.68 1019.92 1020.31 1020.73 1021.44 1022.02 1022.50 1022.92 1022.89 1023.17 1023.46 1023.57 1023.72 1024.10 1024.39 1024.70
1018.32 1017.51 1016.74 1017.58 1018.56 1018.90 1018.98 1019.00 1019.14 1019.18 1019.08 1019.45 1018.63 1017.78 1017.57 1017.23 1017.26 1016.76 1016.82 1016.96 1016.97 1017.01 1016.92 1016.98 1017.27 1017.76 1018.01 1018.08 1018.34 1019.05 1019.32 1019.83 1020.39 1020.89 1021.27 1021.74 1022.08 1022.20 1022.26 1022.78 1023.18 1023.49 1023.75 1023.91
1017.38 1015.93 1017.63 1018.04 1018.26 1018.73 1018.75 1018.86 1019.05 1019.29 1019.28 1019.30 1018.79 1017.51 1016.73 1016.17 1016.22 1016.11 1015.87 1015.71 1015.55 1015.81 1015.95 1016.07 1016.62 1016.67 1017.18 1017.35 1017.29 1017.71 1018.20 1018.82 1019.29 1019.84 1020.50 1021.10 1021.59 1021.90 1021.99 1022.20 1022.29 1022.60 1022.99 1023.26
1017.65 1016.83 1017.38 1017.96 1017.78 1018.28 1018.12 1018.37 1019.18 1019.33 1019.44 1018.99 1018.91 1016.37 1015.14 1015.05 1014.96 1014.77 1014.47 1014.68 1014.32 1014.60 1014.80 1014.88 1015.18 1015.77 1016.10 1016.06 1016.48 1016.88 1017.38 1017.82 1018.30 1018.94 1019.50 1019.81 1020.21 1020.50 1020.55 1021.05 1021.18 1021.35 1021.84 1022.27
1016.82 1017.18 1017.22 1017.33 1016.51 1017.73 1017.60 1018.12 1018.79 1019.23 1019.16 1019.08 1018.87 1018.31 1013.05 1013.87 1013.75 1013.44 1012.95 1012.90 1012.71 1013.04 1013.44 1013.63 1014.03 1014.15 1014.24 1014.87 1015.25 1015.56 1016.35 1016.84 1017.35 1017.84 1018.04 1018.65 1019.18 1019.08 1019.62 1020.04 1020.49 1020.85 1021.11 1021.38
1017.45 1017.50 1017.38 1016.72 1016.73 1016.88 1017.74 1018.19 1018.63 1019.07 1019.28 1018.58 1017.18 1017.60 1012.84 1012.85 1012.48 1012.22 1011.84 1011.42 1011.42 1011.75 1012.08 1012.30 1012.53 1012.97 1013.48 1013.97 1014.36 1014.80 1015.37 1015.82 1016.37 1016.79 1017.17 1017.51 1017.94 1018.38 1019.02 1019.30 1019.65 1020.03 1020.39 1020.76
1016.45 1017.02 1017.38 1017.18 1016.80 1016.68 1017.22 1018.08 1018.40 1018.92 1017.94 1016.44 1015.96 1016.53 1011.39 1011.37 1010.77 1011.07 1011.00 1010.70 1010.21 1010.53 1011.04 1011.19 1011.67 1012.16 1012.72 1013.24 1013.54 1013.89 1014.36 1014.81 1015.27 1015.83 1016.34 1016.62 1016.95 1017.48 1017.82 1018.25 1018.71 1019.29 1019.68 1019.82
1017.71 1017.02 1016.22 1015.70 1016.01 1015.46 1015.72 1016.31 1016.39 1016.51 1017.03 1015.76 1015.73 1014.28 1010.70 1010.29 1010.56 1010.22 1010.21 1009.93 1009.80 1010.14 1010.19 1010.42 1010.75 1011.16 1011.51 1011.91 1012.44 1012.87 1013.35 1013.81 1014.37 1014.77 1015.26 1015.84 1016.27 1016.71 1017.07 1017.61 1017.98 1018.30 1018.55 1018.87
1016.67 1016.02 1014.46 1014.28 1014.94 1015.72 1014.76 1015.15 1015.14 1015.91 1016.78 1015.68 1014.12 1012.05 1010.36 1009.97 1010.09 1009.99 1009.82 1010.18 1009.84 1009.42 1009.45 1009.52 1010.24 1010.40 1010.52 1010.97 1011.42 1011.86 1012.46 1012.89 1013.32 1013.77 1014.37 1014.94 1015.39 1015.90 1016.17 1016.62 1017.27 1017.73 1017.97 1018.23
1016.06 1015.98 1014.63 1014.19 1014.68 1014.42 1014.33 1014.49 1015.06 1015.55 1015.09 1014.80 1013.06 1010.40 1008.78 1008.77 1009.06 1009.46 1009.61 1009.27 1008.63 1008.48 1008.75 1009.03 1009.28 1009.42 1009.73 1010.20 1010.66 1011.22 1011.54 1011.81 1012.30 1012.82 1013.50 1014.04 1014.48 1015.04 1015.56 1016.21 1016.63 1017.06 1017.31 1017.52
1016.23 1016.12 1015.43 1014.73 1014.25 1013.72 1013.96 1013.78 1013.74 1013.57 1013.68 1012.85 1011.70 1008.35 1007.66 1008.09 1008.31 1008.11 1008.21 1007.66 1007.13 1007.54 1007.79 1008.11 1008.56 1008.87 1009.08 1009.70 1010.29 1010.63 1010.96 1011.26 1011.78 1012.26 1012.75 1013.32 1013.94 1014.64 1015.24 1015.75 1016.13 1016.38 1016.65 1016.92
1015.74 1016.29 1015.80 1014.52 1013.64 1013.70 1013.97 1014.14 1013.64 1011.58 1011.78 1011.14 1009.16 1005.96 1005.94 1006.06 1006.11 1006.53 1006.28 1006.04 1006.02 1006.94 1007.41 1007.87 1008.55 1008.94 1008.82 1008.95 1009.64 1009.96 1010.45 1010.94 1011.30 1011.69 1012.44 1013.10 1013.73 1014.42 1015.00 1015.36 1015.64 1015.93 1016.32 1016.64
1015.27 1016.01 1016.09 1014.97 1014.05 1013.52 1013.71 1012.99 1014.03 1012.07 1010.86 1010.22 1009.28 1005.82 1006.29 1006.17 1006.33 1006.50 1006.50 1006.54 1006.17 1006.74 1007.26 1007.78 1008.30 1008.74 1008.64 1008.89 1009.51 1009.92 1010.34 1010.67 1011.22 1011.82 1012.37 1013.01 1013.58 1014.15 1014.59 1014.98 1015.45 1015.88 1016.28 1016.62
1014.20 1014.64 1014.44 1013.54 1012.00 1012.07 1011.70 1011.68 1011.99 1012.37 1009.01 1008.99 1007.74 1005.80 1005.03 1005.15 1005.58 1005.94 1005.99 1006.10 1006.35 1006.76 1006.98 1007.37 1007.71 1007.74 1008.19 1008.73 1009.26 1009.67 1010.04 1010.21 1010.62 1011.26 1011.97 1012.65 1013.18 1013.67 1014.35 1014.95 1015.42 1015.82 1016.22 1016.65
1014.28 1014.61 1014.79 1013.96 1013.23 1013.08 1012.32 1011.88 1011.77 1011.09 1009.94 1008.59 1006.81 1005.35 1002.24 1004.17 1004.91 1005.21 1005.48 1005.46 1005.96 1006.27 1006.43 1006.77 1007.41 1007.79 1008.05 1008.45 1009.08 1009.61 1009.87 1010.19 1010.46 1011.02 1011.71 1012.29 1013.01 1013.73 1014.37 1014.98 1015.46 1015.95 1016.44 1016.74
1014.48 1014.73 1014.88 1014.44 1013.98 1013.70 1013.18 1012.28 1011.65 1010.45 1010.37 1009.36 1008.00 1005.82 1001.92 1003.09 1004.09 1004.17 1004.03 1004.85 1005.06 1005.04 1005.21 1005.78 1006.39 1006.87 1007.67 1008.07 1008.50 1009.03 1009.42 1009.96 1010.39 1010.89 1011.58 1012.27 1012.91 1013.76 1014.41 1015.02 1015.54 1015.91 1016.36 1016.86
1015.10 1015.46 1015.89 1015.00 1014.42 1013.56 1012.00 1010.03 1010.31 1009.30 1008.71 1009.07 1008.79 1006.23 1001.08 1002.54 1003.27 1003.06 1003.87 1004.11 1003.83 1003.65 1004.22 1004.81 1005.08 1005.47 1006.13 1006.94 1007.50 1008.21 1008.88 1009.35 1010.08 1010.73 1011.46 1012.13 1012.86 1013.72 1014.44 1014.97 1015.77 1016.06 1016.37 1016.71
1015.22 1016.25 1016.73 1015.66 1014.89 1013.49 1010.14 1009.45 1008.70 1007.86 1005.44 1006.15 1006.21 1005.01 1002.44 1000.94 1002.34 1002.56 1002.18 1002.10 1002.23 1002.70 1003.16 1003.47 1004.04 1004.58 1004.87 1005.58 1006.82 1007.48 1008.20 1008.89 1009.61 1010.44 1011.20 1011.96 1012.71 1013.56 1014.38 1015.10 1015.86 1016.11 1016.41 1016.77
1014.94 1016.10 1017.23 1016.56 1015.07 1012.53 1009.26 1008.13 1007.90 1006.89 1004.30 1004.16 1003.81 1002.81 1001.21 1001.51 1002.47 1001.26 1000.30 1000.67 1000.79 1001.51 1001.71 1002.05 1002.56 1003.20 1004.47 1005.12 1005.81 1006.92 1008.03 1008.67 1009.55 1010.32 1010.98 1011.85 1012.56 1013.35 1014.12 1014.90 1015.71 1015.84 1016.14 1016.50
1014.16 1014.34 1015.62 1014.97 1014.25 1011.37 1006.35 1004.29 1005.44 1005.17 1004.05 1001.74 1002.24 1000.76 999.65 999.48 1001.65 997.60 996.97 999.97 1000.19 1000.28 1000.56 1001.22 1001.71 1002.53 1003.50 1004.18 1005.22 1006.27 1007.16 1008.06 1008.88 1009.55 1010.31 1011.19 1012.03 1013.00 1013.86 1014.62 1015.26 1015.65 1015.97 1016.39
1014.67 1014.52 1014.14 1012.90 1012.22 1008.66 1002.93 1004.44 1004.24 1004.14 1002.53 999.05 999.74 998.22 998.36 1000.04 996.82 993.17 998.08 998.55 998.76 999.15 999.73 1000.17 1001.08 1001.75 1002.15 1003.24 1004.44 1005.52 1006.51 1007.09 1007.66 1008.85 1009.91 1010.98 1011.93 1012.71 1013.13 1013.81 1014.40 1014.93 1015.69 1016.27
1012.65 1012.39 1011.87 1011.36 1010.16 1007.22 999.90 1001.95 1003.55 1000.97 1000.35 999.19 999.34 997.79 998.67 998.74 996.63 996.53 997.57 997.90 998.24 998.68 999.43 999.93 1000.81 1001.40 1001.62 1002.65 1003.78 1004.63 1005.34 1006.24 1007.41 1008.55 1009.69 1010.68 1011.64 1012.53 1013.10 1013.27 1013.95 1014.50 1015.19 1015.98
1010.31 1008.58 1007.84 1007.07 1004.51 1000.73 1000.62 1000.83 1000.89 1000.45 1000.02 997.68 999.05 998.08 997.42 996.77 995.56 995.01 995.85 996.37 997.19 997.96 998.55 999.26 999.98 1000.95 1001.93 1002.36 1002.47 1003.91 1004.99 1006.20 1007.42 1008.58 1009.63 1010.55 1011.55 1012.42 1012.92 1012.94 1013.56 1014.15 1015.09 1015.54
1007.75 1007.34 1007.24 1006.48 1003.04 1000.74 1000.92 1000.73 1000.80 1000.66 999.98 998.12 997.27 997.37 997.33 996.39 994.71 994.65 995.30 995.74 996.49 997.40 998.04 998.87 999.93 1000.53 1001.42 1002.01 1002.62 1002.88 1004.55 1005.83 1007.09 1008.37 1009.54 1010.30 1011.19 1012.19 1012.41 1012.60 1012.82 1013.63 1014.69 1015.17
1007.94 1007.90 1007.09 1005.39 1003.47 1002.74 1001.07 1001.21 1000.73 999.99 998.95 997.98 997.28 996.89 996.27 995.73 994.87 994.89 995.88 995.88 996.41 996.99 997.61 998.38 999.04 999.62 1000.17 1001.18 1002.06 1003.19 1004.29 1005.23 1006.71 1007.99 1009.06 1009.78 1010.84 1011.67 1011.97 1012.44 1013.00 1013.67 1014.21 1014.59
1011.68 1011.93 1010.83 1008.15 1007.90 1007.34 1004.71 1002.92 1002.59 1001.76 1000.69 998.73 997.66 996.93 995.68 995.63 994.87 994.85 995.13 995.32 995.65 996.45 997.50 998.10 998.34 999.20 1000.07 1001.09 1002.44 1003.01 1003.82 1004.89 1005.89 1007.58 1008.43 1009.28 1010.25 1011.40 1012.02 1012.65 1013.52 1014.15 1014.50 1015.16
Wind_Speed
7 9 18 26 15 3 7 5 7 4 5 4 9 18 16 7 6 9 10 10 11 14 11 8 11 12 11 12 13 15 15 14 10 8 7 7 8 8 7 8 11 10 9 10
7 17 25 15 9 5 2 5 4 1 4 5 5 17 15 9 8 13 14 12 13 11 9 8 10 11 15 16 16 15 16 15 13 10 8 6 7 7 7 7 9 11 11 12
16 19 11 14 12 14 13 10 5 4 2 2 4 18 16 12 10 9 10 13 12 15 16 12 11 14 13 15 18 17 17 16 15 15 7 4 3 1 5 7 8 10 12 11
12 17 10 17 16 18 19 13 5 5 6 8 9 14 14 9 17 15 16 14 19 14 13 13 13 13 15 17 13 16 16 17 15 16 12 14 11 11 9 8 8 9 12 13
7 7 18 12 26 16 10 7 13 14 7 2 5 5 11 9 15 12 15 18 17 17 17 17 16 17 18 16 16 16 16 16 16 16 17 13 14 11 8 8 10 10 9 12
7 6 2 18 10 17 7 5 4 2 10 15 22 14 18 14 9 12 18 20 15 15 16 16 16 14 13 11 13 13 15 16 16 17 19 18 17 14 9 9 9 8 8 7
22 12 1 1 12 9 9 16 9 9 8 6 16 10 26 6 9 15 19 22 20 12 14 17 16 13 13 14 15 13 16 17 17 17 17 19 18 15 15 12 9 9 7 7
15 11 22 15 12 10 24 15 4 13 6 22 9 15 14 13 19 11 16 17 11 8 11 11 13 13 15 16 16 16 16 17 15 16 18 16 16 10 11 10 9 8 9 7
12 13 3 12 13 18 13 21 26 2 2 2 6 13 10 5 6 8 18 8 14 16 13 14 12 14 13 12 15 17 16 15 15 16 13 14 14 13 13 13 8 8 8 6
4 2 6 8 3 16 24 11 13 11 10 12 6 19 17 12 20 11 13 19 21 19 11 11 10 11 10 10 11 12 15 17 14 14 13 12 13 13 12 8 11 10 8 9
3 5 5 4 10 18 15 15 16 13 15 13 19 19 10 17 15 20 22 22 18 16 16 16 9 6 7 6 8 12 13 12 11 13 12 12 10 9 9 9 8 9 8 8
7 1 6 17 8 4 4 4 22 14 15 19 23 25 1 15 23 21 21 24 15 8 8 5 5 7 7 8 9 12 10 11 11 9 8 8 7 7 8 8 8 7 7 6
11 7 3 11 4 10 13 16 15 26 8 14 19 24 4 6 7 10 11 10 9 4 5 6 8 9 8 6 6 7 8 9 7 7 8 7 7 7 8 6 5 4 4 3
18 4 10 14 12 3 13 18 25 27 20 18 19 27 19 9 11 9 10 9 7 7 9 10 8 11 9 7 8 8 8 7 8 8 8 8 8 7 6 5 6 6 5 5
11 7 5 17 16 13 18 14 16 16 24 19 26 26 32 21 12 7 8 5 7 9 10 10 8 6 7 7 7 6 6 8 8 10 9 8 7 6 6 6 6 6 5 4
2 6 4 16 14 10 15 18 24 26 25 20 27 27 29 18 8 11 15 6 9 11 11 9 10 10 10 10 11 9 9 9 8 9 8 7 8 7 6 6 7 6 6 5
5 3 4 15 10 11 11 19 21 22 28 26 25 26 44 27 18 15 8 10 16 16 11 13 16 16 15 15 13 13 12 8 8 8 7 8 8 7 7 6 7 6 6 5
4 5 2 10 6 7 15 11 16 23 27 23 23 30 37 30 19 8 12 18 19 16 11 13 13 14 15 12 10 8 9 9 9 8 8 8 8 7 7 6 6 5 4 5
10 5 3 7 6 16 24 16 8 7 29 27 27 32 35 24 4 17 18 18 21 16 15 16 15 14 9 14 13 11 9 8 8 9 9 8 8 8 8 7 7 5 5 5
12 15 10 6 6 11 28 25 9 15 26 27 22 35 36 25 14 29 34 11 15 13 8 11 10 9 15 14 13 14 13 11 12 10 10 8 8 9 9 8 7 4 4 5
4 6 16 17 11 12 27 16 3 9 12 18 24 33 35 20 31 41 10 14 18 16 17 8 11 16 19 13 15 14 12 15 10 9 9 9 9 10 10 9 5 6 7 7
11 7 8 8 10 24 31 9 20 23 26 23 15 25 24 19 25 22 21 14 11 13 9 11 11 13 11 16 16 15 17 9 10 11 11 10 9 7 8 10 7 8 8 6
12 17 16 17 15 29 9 12 16 19 24 30 21 26 23 21 26 28 24 25 19 14 10 10 13 10 10 13 15 16 10 13 13 12 12 11 10 8 8 10 9 6 5 5
11 13 16 22 30 36 24 14 18 12 24 28 28 22 22 27 28 23 20 19 14 10 12 9 11 13 13 11 9 8 15 14 15 14 13 12 11 9 8 6 6 7 6 5
11 3 23 28 28 26 26 16 23 25 24 21 13 14 22 20 23 20 12 9 9 10 7 11 15 14 16 15 13 12 15 17 15 14 13 12 9 9 8 6 5 5 2 5
6 6 8 15 9 11 10 8 17 18 21 21 20 16 12 13 20 10 11 10 10 11 8 10 9 9 10 12 10 12 16 16 17 14 12 11 10 8 7 8 8 7 8 9
Wind_Direction
178 207 208 210 207 160 161 174 201 170 153 137 217 253 262 232 219 253 241 240 234 232 243 214 204 197 193 194 195 195 192 197 187 187 193 214 214 210 215 215 215 211 209 207
197 219 219 215 205 238 268 188 179 259 138 195 192 258 254 252 237 233 235 236 233 239 234 217 209 196 201 204 204 200 204 194 193 195 198 201 190 214 216 207 212 214 211 208
211 224 221 212 218 222 234 217 167 168 134 275 36 272 253 254 244 244 239 242 234 222 232 230 209 205 206 208 204 204 205 199 196 197 182 164 165 166 187 208 212 213 212 212
234 252 191 215 224 200 233 211 194 152 165 234 180 275 240 223 239 228 235 224 234 223 228 228 211 205 206 218 209 210 206 204 201 190 192 200 207 216 214 215 211 209 206 214
218 161 208 206 218 207 229 163 205 224 235 278 204 272 277 182 233 243 243 233 230 221 216 221 216 211 210 207 206 204 203 203 201 195 200 201 211 219 212 204 206 212 206 213
227 146 147 227 214 206 147 147 146 148 218 234 226 219 256 231 201 241 249 251 233 210 218 223 217 210 215 202 205 202 198 207 197 198 203 204 211 214 206 205 206 212 211 209
241 229 156 232 225 191 187 209 219 236 227 231 204 198 232 255 203 214 233 244 246 208 209 220 211 203 202 199 201 199 195 204 196 197 200 209 210 210 214 212 210 203 202 211
209 230 200 199 207 203 211 202 197 199 197 229 148 225 232 228 225 209 231 241 264 229 222 224 214 208 207 209 203 199 195 202 196 195 203 208 209 211 215 214 209 211 215 219
189 237 242 178 195 201 204 210 219 19 57 350 178 268 275 205 254 257 245 250 252 253 235 221 213 219 215 208 204 198 193 200 196 199 198 201 204 205 210 212 208 210 206 207
197 315 206 220 158 215 216 193 201 216 204 229 234 241 236 201 217 227 240 242 244 244 242 237 215 214 208 209 205 199 197 195 193 188 192 200 201 205 210 194 200 200 206 200
155 139 228 100 200 214 212 231 215 220 209 235 247 250 194 210 208 218 225 240 247 240 238 246 232 228 205 194 192 201 193 181 181 185 189 193 193 192 194 204 202 204 202 199
195 100 251 239 215 192 243 237 254 209 207 225 230 244 171 214 198 209 217 226 242 245 262 236 209 213 198 196 193 198 190 187 192 183 168 171 156 168 189 200 199 194 206 203
157 211 330 322 254 221 233 246 257 254 216 217 220 249 194 211 202 225 230 240 256 237 220 206 186 206 197 188 183 178 178 189 169 157 157 161 172 177 194 194 178 174 174 165
168 165 187 221 229 344 220 237 249 246 228 218 215 246 217 214 203 213 230 237 252 221 209 214 209 196 190 188 187 180 180 174 160 154 157 167 181 183 179 167 160 152 144 149
172 224 221 256 275 294 268 255 256 273 256 240 227 229 248 237 229 221 237 246 216 219 214 210 211 219 197 185 188 179 169 168 160 155 161 175 161 157 151 149 147 140 150 140
238 264 225 261 260 256 258 287 285 276 254 288 263 268 259 239 224 214 226 229 241 239 221 200 196 196 201 196 192 185 177 173 162 160 170 156 149 147 153 145 142 144 143 151
178 145 94 265 268 277 266 242 253 255 249 235 258 243 258 260 253 239 221 212 237 248 218 198 206 202 197 197 187 185 183 157 165 159 158 153 144 151 162 151 150 152 157 150
181 93 114 266 41 265 245 204 239 254 266 242 233 252 262 258 264 239 216 217 234 237 231 216 207 211 200 180 179 160 157 168 164 164 158 156 154 157 149 145 157 146 141 156
188 148 268 255 234 282 292 258 237 235 265 252 243 242 252 262 336 268 235 223 228 221 226 224 208 206 174 181 176 164 164 157 155 169 169 164 158 151 152 150 158 152 145 131
209 203 195 222 175 234 256 266 229 244 256 249 221 241 245 241 238 254 239 212 231 227 198 206 187 172 179 186 170 165 172 168 183 175 168 158 146 148 152 147 153 139 134 124
140 203 216 240 242 261 258 234 80 228 253 247 226 235 240 221 224 243 126 223 222 215 213 175 170 186 200 167 163 172 168 189 173 141 141 137 143 153 155 147 146 140 136 141
194 177 196 229 234 263 251 276 215 238 246 266 271 259 255 244 252 256 242 234 212 209 184 181 177 198 177 169 173 176 182 158 139 138 136 139 144 151 159 142 135 141 138 137
241 211 225 209 224 242 213 218 225 245 249 259 244 247 261 252 248 244 235 236 227 211 192 177 187 171 174 176 176 172 169 145 139 139 142 142 143 153 160 141 142 131 133 137
251 232 238 255 254 261 264 244 229 230 248 249 251 249 238 246 250 251 246 233 225 193 197 172 167 180 183 178 179 168 147 145 144 143 148 145 148 155 153 143 136 137 156 147
252 194 239 250 256 266 261 269 249 248 245 242 233 224 238 245 252 241 240 231 211 207 183 177 189 192 189 175 163 148 151 148 148 148 153 147 149 157 142 120 134 141 110 158
25 350 271 264 11 310 287 326 333 317 302 268 246 238 237 228 240 222 229 213 197 193 172 183 182 175 159 155 153 148 155 156 148 151 154 153 148 145 132 122 110 100 128 133